Location: Treviso
(45.6669°N, 12.2430°E)
Time: 09:00:13
(UTC+01:00)

ISS - Pass Details

Date: 03 December 2021
Orbit: 417 x 422 km, 51.6° (Epoch: 06 December)

Event Time Altitude Azimuth Distance (km) Brightness Sun altitude
Rises 18:45:46 0° 298° (WNW) 2,379 0.9 -23.3°
Reaches altitude 10° 18:47:53 10° 297° (WNW) 1,511 -0.2 -23.7°
Enters shadow 18:50:06 38° 291° (WNW) 663 -2.4 -24.1°
